Simultaneous Nadir Overpasses (SNOs) Predictions

Prediction of SNOs between AQUA and METOP-B Satellite Orbit:

Table of predicted SNOs for the next 14.0 days since TLE Epoch: 12/31/2021
Index Date (AQUA) Time (AQUA) Lat,Lon (AQUA) SZA (AQUA ) Date (METOP-B) Time (METOP-B) Lat,Lon (METOP-B) SZA (METOP-B ) Distance(km) Time Diff (sec)
1 01/03/2022 00:16:55 73.78, 170.18 96.63 01/03/2022 00:16:32 73.79, 170.07 96.65 3.46 23
2 01/03/2022 01:06:23 -73.89, -22.43 83.26 01/03/2022 01:07:12 -73.86, -22.42 83.29 3.65 49
3 01/05/2022 19:01:33 -73.23, 70.15 84.24 01/05/2022 19:00:26 -73.13, 67.67 84.24 80.42 67
4 01/05/2022 19:51:12 73.84,-123.52 96.41 01/05/2022 19:50:52 73.83,-123.41 96.40 3.72 20
5 01/05/2022 20:40:39 -73.90, 43.99 83.54 01/05/2022 20:41:32 -73.91, 44.11 83.54 3.62 53
6 01/08/2022 14:35:51 -73.41, 136.22 84.40 01/08/2022 14:34:41 -73.38, 134.63 84.36 50.62 70
7 01/08/2022 15:25:26 73.82, -57.03 96.04 01/08/2022 15:25:12 73.82, -57.02 96.04 0.58 14
8 01/08/2022 16:14:53 -73.87, 110.50 83.92 01/08/2022 16:15:52 -73.91, 110.51 83.89 3.62 59
9 01/11/2022 10:10:10 -73.61,-157.75 84.60 01/11/2022 10:08:58 -73.57,-158.52 84.59 24.42 72
10 01/11/2022 10:59:41 73.81, 9.44 95.62 01/11/2022 10:59:33 73.81, 9.37 95.63 2.13 8
11 01/11/2022 11:49:09 -73.91, 176.85 84.28 01/11/2022 11:50:13 -73.90, 176.90 84.30 2.31 64
12 01/14/2022 05:44:28 -73.77, -91.66 84.89 01/14/2022 05:43:15 -73.76, -91.67 84.88 0.78 73
13 01/14/2022 06:33:56 73.82, 75.86 95.17 01/14/2022 06:33:53 73.85, 75.86 95.20 2.87 3



Historial Predications of SNOs between AQUA and METOP-B
